| time (UTC) | temp F | wind direction | speed MPH | gust MPH | rain 1hr in | rain 24hr in | rain mn in | humidity % | barometer mb |
| 20260510170829 | 64 | 56 | 0.0 | 2.0 | 0.00 | 0.00 | 0.00 | 32 | 1021.5 |
| 20260510170326 | 65 | 25 | 2.0 | 2.0 | 0.00 | 0.00 | 0.00 | 32 | 1021.4 |
| 20260510165820 | 65 | 57 | 0.0 | 2.0 | 0.00 | 0.00 | 0.00 | 30 | 1021.4 |
| 20260510165318 | 64 | 10 | 1.0 | 2.0 | 0.00 | 0.00 | 0.00 | 32 | 1021.4 |
| 20260510164815 | 64 | 32 | 2.0 | 5.0 | 0.00 | 0.00 | 0.00 | 32 | 1021.6 |
| 20260510164312 | 65 | 54 | 1.0 | 2.0 | 0.00 | 0.00 | 0.00 | 33 | 1021.3 |
| 20260510163812 | 64 | 55 | 0.0 | 3.0 | 0.00 | 0.00 | 0.00 | 34 | 1021.4 |
| 20260510163308 | 64 | 35 | 0.0 | 3.0 | 0.00 | 0.00 | 0.00 | 33 | 1021.7 |
| 20260510162808 | 65 | 317 | 0.0 | 0.0 | 0.00 | 0.00 | 0.00 | 34 | 1021.5 |
| 20260510162306 | 64 | 47 | 0.0 | 1.0 | 0.00 | 0.00 | 0.00 | 35 | 1021.5 |
| 20260510161801 | 64 | 328 | 0.0 | 1.0 | 0.00 | 0.00 | 0.00 | 34 | 1021.5 |
| 20260510161257 | 64 | 59 | 0.0 | 0.0 | 0.00 | 0.00 | 0.00 | 35 | 1021.6 |
| 20260510160754 | 64 | 94 | 1.0 | 3.0 | 0.00 | 0.00 | 0.00 | 33 | 1021.5 |
| 20260510160251 | 64 | 44 | 0.0 | 0.0 | 0.00 | 0.00 | 0.00 | 33 | 1021.8 |
| 20260510155745 | 63 | 58 | 0.0 | 3.0 | 0.00 | 0.00 | 0.00 | 35 | 1021.7 |
| 20260510155242 | 63 | 27 | 0.0 | 2.0 | 0.00 | 0.00 | 0.00 | 34 | 1021.6 |
| 20260510154737 | 62 | 46 | 1.0 | 2.0 | 0.00 | 0.00 | 0.00 | 34 | 1021.6 |
| 20260510154234 | 62 | 46 | 0.0 | 0.0 | 0.00 | 0.00 | 0.00 | 35 | 1021.6 |
| 20260510153729 | 62 | 63 | 0.0 | 0.0 | 0.00 | 0.00 | 0.00 | 38 | 1021.4 |
| 20260510153225 | 62 | 60 | 0.0 | 1.0 | 0.00 | 0.00 | 0.00 | 37 | 1021.2 |
| 20260510152722 | 62 | 72 | 0.0 | 0.0 | 0.00 | 0.00 | 0.00 | 36 | 1021.2 |
| 20260510152217 | 61 | 75 | 0.0 | 0.0 | 0.00 | 0.00 | 0.00 | 36 | 1021.2 |
| 20260510151715 | 62 | 66 | 0.0 | 1.0 | 0.00 | 0.00 | 0.00 | 34 | 1021.1 |
| 20260510151214 | 62 | 63 | 0.0 | 0.0 | 0.00 | 0.00 | 0.00 | 38 | 1021.0 |
| 20260510150709 | 61 | 97 | 0.0 | 1.0 | 0.00 | 0.00 | 0.00 | 34 | 1021.1 |
| 20260510150204 | 61 | 56 | 0.0 | 0.0 | 0.00 | 0.00 | 0.00 | 37 | 1021.2 |
| 20260510145701 | 61 | 58 | 0.0 | 1.0 | 0.00 | 0.00 | 0.00 | 37 | 1021.3 |
| 20260510145157 | 60 | 36 | 0.0 | 0.0 | 0.00 | 0.00 | 0.00 | 38 | 1021.3 |
| 20260510144653 | 59 | 343 | 2.0 | 3.0 | 0.00 | 0.00 | 0.00 | 36 | 1021.3 |
| 20260510144149 | 59 | 38 | 0.0 | 3.0 | 0.00 | 0.00 | 0.00 | 40 | 1021.3 |
| 20260510143645 | 59 | 45 | 1.0 | 2.0 | 0.00 | 0.00 | 0.00 | 39 | 1021.1 |
| 20260510143142 | 59 | 67 | 0.0 | 0.0 | 0.00 | 0.00 | 0.00 | 39 | 1021.2 |
| 20260510142638 | 59 | 45 | 0.0 | 1.0 | 0.00 | 0.00 | 0.00 | 40 | 1021.2 |
| 20260510142135 | 59 | 48 | 0.0 | 2.0 | 0.00 | 0.00 | 0.00 | 40 | 1021.4 |
| 20260510141632 | 58 | 56 | 0.0 | 1.0 | 0.00 | 0.00 | 0.00 | 41 | 1021.4 |
| 20260510141130 | 58 | 39 | 1.0 | 2.0 | 0.00 | 0.00 | 0.00 | 40 | 1021.5 |
| 20260510140626 | 58 | 55 | 0.0 | 1.0 | 0.00 | 0.00 | 0.00 | 42 | 1021.3 |
| 20260510140125 | 57 | 68 | 0.0 | 0.0 | 0.00 | 0.00 | 0.00 | 42 | 1021.2 |
| 20260510135621 | 57 | 60 | 0.0 | 1.0 | 0.00 | 0.00 | 0.00 | 42 | 1021.1 |
| 20260510135118 | 58 | 52 | 0.0 | 1.0 | 0.00 | 0.00 | 0.00 | 41 | 1020.9 |
| 20260510134614 | 59 | 51 | 0.0 | 1.0 | 0.00 | 0.00 | 0.00 | 40 | 1020.8 |
| 20260510134111 | 57 | 69 | 0.0 | 0.0 | 0.00 | 0.00 | 0.00 | 43 | 1020.7 |
| 20260510133608 | 57 | 42 | 0.0 | 1.0 | 0.00 | 0.00 | 0.00 | 42 | 1020.9 |
| 20260510133103 | 56 | 56 | 1.0 | 2.0 | 0.00 | 0.00 | 0.00 | 41 | 1020.8 |
| 20260510132600 | 57 | 63 | 0.0 | 1.0 | 0.00 | 0.00 | 0.00 | 41 | 1020.8 |
| 20260510132057 | 57 | 51 | 0.0 | 1.0 | 0.00 | 0.00 | 0.00 | 42 | 1020.7 |
| 20260510131555 | 56 | 43 | 0.0 | 1.0 | 0.00 | 0.00 | 0.00 | 44 | 1020.7 |
| 20260510131052 | 55 | 53 | 0.0 | 0.0 | 0.00 | 0.00 | 0.00 | 44 | 1020.7 |
| 20260510130548 | 55 | 54 | 0.0 | 2.0 | 0.00 | 0.00 | 0.00 | 43 | 1020.4 |
| 20260510130046 | 55 | 65 | 0.0 | 2.0 | 0.00 | 0.00 | 0.00 | 44 | 1020.4 |
| 20260510125542 | 55 | 47 | 0.0 | 1.0 | 0.00 | 0.00 | 0.00 | 44 | 1020.3 |
| 20260510125038 | 55 | 54 | 0.0 | 1.0 | 0.00 | 0.00 | 0.00 | 43 | 1020.3 |
| 20260510124535 | 55 | 46 | 0.0 | 0.0 | 0.00 | 0.00 | 0.00 | 43 | 1020.4 |
| 20260510124033 | 55 | 51 | 0.0 | 1.0 | 0.00 | 0.00 | 0.00 | 43 | 1020.2 |
| 20260510123533 | 55 | 49 | 0.0 | 0.0 | 0.00 | 0.00 | 0.00 | 44 | 1019.8 |
| 20260510123029 | 55 | 56 | 0.0 | 2.0 | 0.00 | 0.00 | 0.00 | 44 | 1019.6 |
| 20260510122525 | 55 | 48 | 0.0 | 2.0 | 0.00 | 0.00 | 0.00 | 43 | 1019.8 |
| 20260510122021 | 55 | 47 | 0.0 | 2.0 | 0.00 | 0.00 | 0.00 | 43 | 1019.5 |
| 20260510121518 | 55 | 49 | 0.0 | 3.0 | 0.00 | 0.00 | 0.00 | 43 | 1019.5 |
| 20260510121016 | 55 | 14 | 0.0 | 1.0 | 0.00 | 0.00 | 0.00 | 43 | 1019.2 |
| 20260510120513 | 55 | 29 | 0.0 | 1.0 | 0.00 | 0.00 | 0.00 | 43 | 1018.7 |
| 20260510120009 | 55 | 48 | 0.0 | 1.0 | 0.00 | 0.00 | 0.00 | 42 | 1018.8 |
| 20260510115506 | 55 | 32 | 0.0 | 3.0 | 0.00 | 0.00 | 0.00 | 43 | 1018.9 |
| 20260510115001 | 55 | 41 | 0.0 | 1.0 | 0.00 | 0.00 | 0.00 | 42 | 1018.7 |
| 20260510114458 | 55 | 43 | 0.0 | 5.0 | 0.00 | 0.00 | 0.00 | 42 | 1018.7 |
| 20260510113954 | 55 | 41 | 0.0 | 3.0 | 0.00 | 0.00 | 0.00 | 43 | 1018.5 |
| 20260510113449 | 56 | 56 | 0.0 | 1.0 | 0.00 | 0.00 | 0.00 | 42 | 1018.6 |
| 20260510112948 | 56 | 32 | 0.0 | 3.0 | 0.00 | 0.00 | 0.00 | 42 | 1018.9 |
| 20260510112444 | 56 | 45 | 0.0 | 3.0 | 0.00 | 0.00 | 0.00 | 42 | 1018.4 |
| 20260510111941 | 56 | 25 | 2.0 | 6.0 | 0.00 | 0.00 | 0.00 | 42 | 1018.2 |
| 20260510111437 | 56 | 51 | 0.0 | 0.0 | 0.00 | 0.00 | 0.00 | 44 | 1018.2 |
| 20260510110933 | 56 | 16 | 0.0 | 0.0 | 0.00 | 0.00 | 0.00 | 43 | 1018.2 |
| 20260510110429 | 56 | 45 | 0.0 | 1.0 | 0.00 | 0.00 | 0.00 | 43 | 1018.4 |
| 20260510105925 | 56 | 340 | 1.0 | 2.0 | 0.00 | 0.00 | 0.00 | 43 | 1018.2 |
| 20260510105420 | 56 | 45 | 1.0 | 2.0 | 0.00 | 0.00 | 0.00 | 43 | 1018.0 |
| 20260510104916 | 56 | 46 | 0.0 | 2.0 | 0.00 | 0.00 | 0.00 | 43 | 1018.2 |
| 20260510104413 | 57 | 15 | 0.0 | 1.0 | 0.00 | 0.00 | 0.00 | 42 | 1018.3 |
| 20260510103910 | 57 | 50 | 0.0 | 5.0 | 0.00 | 0.00 | 0.00 | 41 | 1018.0 |
| 20260510103407 | 57 | 34 | 0.0 | 2.0 | 0.00 | 0.00 | 0.00 | 41 | 1018.0 |
| 20260510102902 | 57 | 46 | 2.0 | 5.0 | 0.00 | 0.00 | 0.00 | 42 | 1017.8 |
| 20260510102358 | 57 | 50 | 1.0 | 3.0 | 0.00 | 0.00 | 0.00 | 43 | 1017.7 |
| 20260510101856 | 57 | 40 | 1.0 | 6.0 | 0.00 | 0.00 | 0.00 | 43 | 1017.5 |
| 20260510101354 | 57 | 344 | 1.0 | 3.0 | 0.00 | 0.00 | 0.00 | 43 | 1017.8 |
| 20260510100850 | 57 | 333 | 0.0 | 2.0 | 0.00 | 0.00 | 0.00 | 44 | 1017.7 |
| 20260510100342 | 57 | 43 | 0.0 | 0.0 | 0.00 | 0.00 | 0.00 | 44 | 1017.3 |
| 20260510095838 | 57 | 54 | 0.0 | 0.0 | 0.00 | 0.00 | 0.00 | 44 | 1017.1 |
| 20260510095332 | 57 | 50 | 0.0 | 2.0 | 0.00 | 0.00 | 0.00 | 43 | 1017.2 |
| 20260510094826 | 57 | 42 | 0.0 | 5.0 | 0.00 | 0.00 | 0.00 | 44 | 1017.1 |
| 20260510094322 | 57 | 48 | 1.0 | 1.0 | 0.00 | 0.00 | 0.00 | 47 | 1017.0 |
| 20260510093818 | 57 | 30 | 1.0 | 3.0 | 0.00 | 0.00 | 0.00 | 48 | 1016.9 |
| 20260510093314 | 57 | 47 | 0.0 | 3.0 | 0.00 | 0.00 | 0.00 | 49 | 1017.1 |
| 20260510092811 | 57 | 39 | 0.0 | 0.0 | 0.00 | 0.00 | 0.00 | 50 | 1017.2 |
| 20260510092307 | 57 | 53 | 0.0 | 1.0 | 0.00 | 0.00 | 0.00 | 49 | 1017.1 |
| 20260510091803 | 57 | 48 | 0.0 | 0.0 | 0.00 | 0.00 | 0.00 | 47 | 1016.9 |
| 20260510091301 | 57 | 31 | 1.0 | 2.0 | 0.00 | 0.00 | 0.00 | 48 | 1016.9 |
| 20260510090757 | 57 | 50 | 1.0 | 2.0 | 0.00 | 0.00 | 0.00 | 50 | 1016.9 |
| 20260510090254 | 57 | 60 | 0.0 | 1.0 | 0.00 | 0.00 | 0.00 | 52 | 1016.6 |
| 20260510085750 | 57 | 61 | 0.0 | 1.0 | 0.00 | 0.00 | 0.00 | 52 | 1017.0 |
| 20260510085244 | 59 | 49 | 0.0 | 2.0 | 0.00 | 0.00 | 0.00 | 50 | 1016.9 |
| 20260510084740 | 59 | 3 | 4.0 | 6.0 | 0.00 | 0.00 | 0.00 | 44 | 1016.7 |
| 20260510084237 | 60 | 10 | 2.0 | 5.0 | 0.00 | 0.00 | 0.00 | 43 | 1017.1 |
| 20260510083734 | 59 | 53 | 1.0 | 2.0 | 0.00 | 0.00 | 0.00 | 44 | 1016.8 |
| 20260510083231 | 59 | 38 | 1.0 | 5.0 | 0.00 | 0.00 | 0.00 | 46 | 1017.0 |
| 20260510082726 | 59 | 51 | 3.0 | 5.0 | 0.00 | 0.00 | 0.00 | 49 | 1016.6 |
| 20260510082223 | 59 | 49 | 0.0 | 0.0 | 0.00 | 0.00 | 0.00 | 51 | 1016.6 |
| 20260510081722 | 59 | 2 | 0.0 | 1.0 | 0.00 | 0.00 | 0.00 | 52 | 1016.7 |
| 20260510081218 | 59 | 55 | 0.0 | 1.0 | 0.00 | 0.00 | 0.00 | 53 | 1016.6 |
| 20260510080713 | 59 | 1 | 0.0 | 1.0 | 0.00 | 0.00 | 0.00 | 53 | 1016.0 |
| 20260510080209 | 59 | 50 | 0.0 | 1.0 | 0.00 | 0.00 | 0.00 | 55 | 1016.0 |
| 20260510075706 | 60 | 39 | 0.0 | 0.0 | 0.00 | 0.00 | 0.00 | 55 | 1016.0 |
| 20260510075204 | 60 | 30 | 0.0 | 1.0 | 0.00 | 0.00 | 0.00 | 54 | 1016.3 |
| 20260510074701 | 60 | 52 | 0.0 | 0.0 | 0.00 | 0.00 | 0.00 | 55 | 1015.9 |
| 20260510074157 | 60 | 1 | 1.0 | 1.0 | 0.00 | 0.00 | 0.00 | 55 | 1015.9 |
| 20260510073654 | 60 | 31 | 0.0 | 1.0 | 0.00 | 0.00 | 0.00 | 55 | 1015.7 |
| 20260510073150 | 60 | 52 | 0.0 | 0.0 | 0.00 | 0.00 | 0.00 | 55 | 1015.8 |
| 20260510072646 | 61 | 43 | 0.0 | 0.0 | 0.00 | 0.00 | 0.00 | 55 | 1015.9 |
| 20260510072143 | 61 | 47 | 0.0 | 0.0 | 0.00 | 0.00 | 0.00 | 55 | 1015.7 |
| 20260510071638 | 61 | 36 | 0.0 | 1.0 | 0.00 | 0.00 | 0.00 | 55 | 1015.5 |
| 20260510071136 | 61 | 46 | 0.0 | 0.0 | 0.00 | 0.00 | 0.00 | 55 | 1015.5 |
| 20260510070633 | 62 | 36 | 0.0 | 0.0 | 0.00 | 0.00 | 0.00 | 53 | 1015.3 |
| 20260510070131 | 62 | 56 | 0.0 | 0.0 | 0.00 | 0.00 | 0.00 | 53 | 1015.4 |
| 20260510065626 | 62 | 49 | 0.0 | 0.0 | 0.00 | 0.00 | 0.00 | 52 | 1015.5 |
| 20260510065123 | 62 | 55 | 0.0 | 0.0 | 0.00 | 0.00 | 0.00 | 52 | 1014.9 |
| 20260510064619 | 63 | 51 | 0.0 | 0.0 | 0.00 | 0.00 | 0.00 | 53 | 1015.1 |
| 20260510064116 | 63 | 55 | 0.0 | 0.0 | 0.00 | 0.00 | 0.00 | 52 | 1015.1 |
| 20260510063613 | 63 | 53 | 0.0 | 0.0 | 0.00 | 0.00 | 0.00 | 52 | 1015.2 |
| 20260510063110 | 63 | 61 | 0.0 | 0.0 | 0.00 | 0.00 | 0.00 | 53 | 1014.7 |
| 20260510062605 | 63 | 55 | 0.0 | 0.0 | 0.00 | 0.00 | 0.00 | 54 | 1014.9 |
| 20260510062100 | 64 | 57 | 0.0 | 0.0 | 0.00 | 0.00 | 0.00 | 54 | 1015.1 |
| 20260510061551 | 64 | 58 | 0.0 | 0.0 | 0.00 | 0.00 | 0.00 | 54 | 1015.3 |
| 20260510061048 | 64 | 55 | 0.0 | 0.0 | 0.00 | 0.00 | 0.00 | 54 | 1015.1 |
| 20260510060544 | 64 | 127 | 0.0 | 0.0 | 0.00 | 0.00 | 0.00 | 54 | 1014.8 |
| 20260510060040 | 64 | 64 | 0.0 | 0.0 | 0.00 | 0.00 | 0.00 | 54 | 1014.8 |
| 20260510055537 | 64 | 56 | 0.0 | 1.0 | 0.00 | 0.00 | 0.00 | 53 | 1014.6 |
| 20260510055035 | 65 | 15 | 0.0 | 0.0 | 0.00 | 0.00 | 0.00 | 53 | 1014.2 |
| 20260510054531 | 65 | 55 | 1.0 | 1.0 | 0.00 | 0.00 | 0.00 | 53 | 1014.0 |
| 20260510054025 | 65 | 51 | 0.0 | 1.0 | 0.00 | 0.00 | 0.00 | 53 | 1014.1 |
| 20260510053521 | 65 | 50 | 0.0 | 0.0 | 0.00 | 0.00 | 0.00 | 53 | 1013.7 |
| 20260510053018 | 65 | 28 | 0.0 | 1.0 | 0.00 | 0.00 | 0.00 | 53 | 1014.1 |
| 20260510052514 | 65 | 52 | 0.0 | 2.0 | 0.00 | 0.00 | 0.00 | 52 | 1013.9 |
| 20260510052010 | 65 | 51 | 0.0 | 1.0 | 0.00 | 0.00 | 0.00 | 52 | 1013.7 |
| 20260510051505 | 66 | 61 | 0.0 | 0.0 | 0.00 | 0.00 | 0.00 | 52 | 1013.8 |
| 20260510051002 | 66 | 41 | 1.0 | 2.0 | 0.00 | 0.00 | 0.00 | 52 | 1013.6 |
| 20260510050459 | 66 | 69 | 0.0 | 2.0 | 0.00 | 0.00 | 0.00 | 51 | 1013.8 |
| 20260510045956 | 66 | 56 | 0.0 | 0.0 | 0.00 | 0.00 | 0.00 | 51 | 1013.6 |
| 20260510045454 | 66 | 57 | 0.0 | 1.0 | 0.00 | 0.00 | 0.00 | 52 | 1013.4 |
| 20260510044950 | 66 | 62 | 0.0 | 0.0 | 0.00 | 0.00 | 0.00 | 51 | 1013.5 |
| 20260510044447 | 66 | 56 | 0.0 | 0.0 | 0.00 | 0.00 | 0.00 | 51 | 1013.5 |
| 20260510043944 | 66 | 44 | 0.0 | 0.0 | 0.00 | 0.00 | 0.00 | 50 | 1013.4 |
| 20260510043439 | 66 | 46 | 1.0 | 2.0 | 0.00 | 0.00 | 0.00 | 51 | 1013.3 |
| 20260510042938 | 66 | 52 | 0.0 | 0.0 | 0.00 | 0.00 | 0.00 | 52 | 1013.1 |
| 20260510042434 | 66 | 62 | 0.0 | 0.0 | 0.00 | 0.00 | 0.00 | 52 | 1013.2 |
| 20260510041929 | 66 | 58 | 0.0 | 0.0 | 0.00 | 0.00 | 0.00 | 52 | 1013.1 |
| 20260510041427 | 66 | 62 | 0.0 | 0.0 | 0.00 | 0.00 | 0.00 | 52 | 1013.0 |
| 20260510040925 | 66 | 59 | 0.0 | 0.0 | 0.00 | 0.00 | 0.00 | 52 | 1013.1 |
| 20260510040422 | 66 | 53 | 0.0 | 0.0 | 0.00 | 0.00 | 0.00 | 51 | 1012.8 |
| 20260510035917 | 67 | 66 | 0.0 | 2.0 | 0.00 | 0.00 | 0.00 | 51 | 1012.5 |
| 20260510035414 | 66 | 59 | 0.0 | 0.0 | 0.00 | 0.00 | 0.00 | 51 | 1012.5 |
| 20260510034914 | 66 | 72 | 0.0 | 0.0 | 0.00 | 0.00 | 0.00 | 52 | 1012.4 |
| 20260510034413 | 67 | 61 | 0.0 | 0.0 | 0.00 | 0.00 | 0.00 | 51 | 1012.1 |
| 20260510033908 | 67 | 56 | 0.0 | 0.0 | 0.00 | 0.00 | 0.00 | 52 | 1012.2 |
| 20260510033405 | 67 | 52 | 0.0 | 3.0 | 0.00 | 0.00 | 0.00 | 51 | 1012.2 |
| 20260510032902 | 67 | 55 | 0.0 | 1.0 | 0.00 | 0.00 | 0.00 | 52 | 1012.1 |
| 20260510032358 | 67 | 53 | 0.0 | 1.0 | 0.00 | 0.00 | 0.00 | 54 | 1012.2 |
| 20260510031854 | 68 | 74 | 0.0 | 0.0 | 0.00 | 0.00 | 0.00 | 56 | 1012.4 |
| 20260510031349 | 68 | 46 | 0.0 | 0.0 | 0.00 | 0.00 | 0.00 | 53 | 1012.2 |
| 20260510030849 | 68 | 44 | 0.0 | 0.0 | 0.00 | 0.00 | 0.00 | 54 | 1012.0 |
| 20260510030346 | 68 | 46 | 0.0 | 0.0 | 0.00 | 0.00 | 0.00 | 54 | 1012.1 |
| 20260510025844 | 68 | 46 | 0.0 | 0.0 | 0.00 | 0.00 | 0.00 | 53 | 1011.9 |
| 20260510025341 | 68 | 48 | 0.0 | 0.0 | 0.00 | 0.00 | 0.00 | 52 | 1011.5 |
| 20260510024838 | 68 | 49 | 0.0 | 0.0 | 0.00 | 0.00 | 0.00 | 52 | 1011.6 |
| 20260510024334 | 68 | 49 | 0.0 | 0.0 | 0.00 | 0.00 | 0.00 | 52 | 1011.3 |
| 20260510023831 | 68 | 49 | 0.0 | 0.0 | 0.00 | 0.00 | 0.00 | 54 | 1011.2 |
| 20260510023327 | 68 | 49 | 0.0 | 0.0 | 0.00 | 0.00 | 0.00 | 53 | 1011.0 |
| 20260510022824 | 68 | 49 | 0.0 | 0.0 | 0.00 | 0.00 | 0.00 | 52 | 1010.7 |
| 20260510022323 | 69 | 49 | 0.0 | 0.0 | 0.00 | 0.00 | 0.00 | 51 | 1010.4 |
| 20260510021823 | 69 | 49 | 0.0 | 0.0 | 0.00 | 0.00 | 0.00 | 51 | 1010.5 |
| 20260510021321 | 69 | 49 | 0.0 | 0.0 | 0.00 | 0.00 | 0.00 | 51 | 1010.2 |
| 20260510020817 | 69 | 49 | 0.0 | 0.0 | 0.00 | 0.00 | 0.00 | 50 | 1010.1 |
| 20260510020312 | 70 | 49 | 0.0 | 0.0 | 0.00 | 0.00 | 0.00 | 49 | 1010.0 |
| 20260510015808 | 70 | 49 | 0.0 | 0.0 | 0.00 | 0.00 | 0.00 | 48 | 1009.7 |
| 20260510015306 | 70 | 48 | 0.0 | 0.0 | 0.00 | 0.00 | 0.00 | 48 | 1009.9 |
| 20260510014759 | 70 | 47 | 0.0 | 0.0 | 0.00 | 0.00 | 0.00 | 48 | 1009.9 |
| 20260510014256 | 71 | 48 | 0.0 | 0.0 | 0.00 | 0.00 | 0.00 | 47 | 1009.9 |
| 20260510013753 | 71 | 36 | 0.0 | 0.0 | 0.00 | 0.00 | 0.00 | 47 | 1009.7 |
| 20260510013248 | 71 | 18 | 0.0 | 2.0 | 0.00 | 0.00 | 0.00 | 47 | 1010.0 |
| 20260510012749 | 71 | 323 | 0.0 | 3.0 | 0.00 | 0.00 | 0.00 | 46 | 1009.8 |
| 20260510012243 | 71 | 336 | 1.0 | 2.0 | 0.00 | 0.00 | 0.00 | 47 | 1009.5 |
| 20260510011738 | 72 | 8 | 1.0 | 1.0 | 0.00 | 0.00 | 0.00 | 47 | 1009.5 |
| 20260510011233 | 72 | 33 | 0.0 | 1.0 | 0.00 | 0.00 | 0.00 | 46 | 1009.7 |
| 20260510010731 | 72 | 37 | 0.0 | 3.0 | 0.00 | 0.00 | 0.00 | 45 | 1009.3 |
| 20260510010227 | 73 | 335 | 0.0 | 2.0 | 0.00 | 0.00 | 0.00 | 45 | 1009.3 |
| 20260510005724 | 73 | 349 | 2.0 | 5.0 | 0.00 | 0.00 | 0.00 | 44 | 1008.9 |
| 20260510005221 | 73 | 342 | 3.0 | 3.0 | 0.00 | 0.00 | 0.00 | 44 | 1008.9 |
| 20260510004719 | 73 | 354 | 3.0 | 3.0 | 0.00 | 0.00 | 0.00 | 46 | 1009.0 |
| 20260510004216 | 73 | 309 | 2.0 | 3.0 | 0.00 | 0.00 | 0.00 | 46 | 1009.3 |
| 20260510003714 | 73 | 348 | 2.0 | 3.0 | 0.00 | 0.00 | 0.00 | 46 | 1008.9 |
| 20260510003209 | 73 | 10 | 0.0 | 0.0 | 0.00 | 0.00 | 0.00 | 46 | 1008.8 |
| 20260510002708 | 73 | 336 | 1.0 | 2.0 | 0.00 | 0.00 | 0.00 | 46 | 1008.9 |
| 20260510002206 | 73 | 314 | 0.0 | 1.0 | 0.00 | 0.00 | 0.00 | 46 | 1008.7 |
| 20260510001703 | 73 | 49 | 0.0 | 1.0 | 0.00 | 0.00 | 0.00 | 45 | 1008.5 |
| 20260510001201 | 73 | 23 | 0.0 | 3.0 | 0.00 | 0.00 | 0.00 | 45 | 1008.3 |
| 20260510000656 | 74 | 43 | 0.0 | 1.0 | 0.00 | 0.00 | 0.00 | 45 | 1008.5 |
| 20260510000154 | 74 | 43 | 0.0 | 3.0 | 0.00 | 0.00 | 0.00 | 45 | 1008.3 |
| 20260509235651 | 74 | 44 | 0.0 | 1.0 | 0.00 | 0.00 | 0.00 | 45 | 1008.3 |
| 20260509235147 | 74 | 359 | 0.0 | 2.0 | 0.00 | 0.00 | 0.00 | 45 | 1008.4 |
| 20260509234643 | 74 | 7 | 0.0 | 1.0 | 0.00 | 0.00 | 0.00 | 45 | 1008.5 |
| 20260509234140 | 75 | 14 | 1.0 | 3.0 | 0.00 | 0.00 | 0.00 | 44 | 1008.1 |
| 20260509233638 | 75 | 12 | 2.0 | 5.0 | 0.00 | 0.00 | 0.00 | 44 | 1008.2 |
| 20260509233135 | 75 | 28 | 0.0 | 3.0 | 0.00 | 0.00 | 0.00 | 44 | 1008.0 |
| 20260509232631 | 75 | 28 | 0.0 | 1.0 | 0.00 | 0.00 | 0.00 | 44 | 1008.1 |
| 20260509232128 | 75 | 43 | 0.0 | 0.0 | 0.00 | 0.00 | 0.00 | 44 | 1008.4 |
| 20260509231625 | 75 | 335 | 2.0 | 3.0 | 0.00 | 0.00 | 0.00 | 44 | 1008.4 |
| 20260509231123 | 75 | 0 | 2.0 | 3.0 | 0.00 | 0.00 | 0.00 | 43 | 1008.3 |
| 20260509230619 | 75 | 32 | 1.0 | 2.0 | 0.00 | 0.00 | 0.00 | 43 | 1008.6 |
| 20260509230117 | 75 | 41 | 0.0 | 1.0 | 0.00 | 0.00 | 0.00 | 42 | 1008.2 |
| 20260509225612 | 76 | 30 | 0.0 | 1.0 | 0.00 | 0.00 | 0.00 | 42 | 1008.4 |
| 20260509225108 | 76 | 351 | 0.0 | 1.0 | 0.00 | 0.00 | 0.00 | 41 | 1008.3 |
| 20260509224603 | 76 | 28 | 2.0 | 2.0 | 0.00 | 0.00 | 0.00 | 40 | 1008.2 |
| 20260509224101 | 77 | 27 | 1.0 | 1.0 | 0.00 | 0.00 | 0.00 | 39 | 1008.0 |
| 20260509223557 | 77 | 23 | 0.0 | 3.0 | 0.00 | 0.00 | 0.00 | 38 | 1008.4 |
| 20260509223055 | 79 | 293 | 4.0 | 8.0 | 0.00 | 0.00 | 0.00 | 35 | 1008.5 |
| 20260509222551 | 81 | 254 | 3.0 | 3.0 | 0.00 | 0.00 | 0.00 | 33 | 1007.5 |
| 20260509222047 | 81 | 228 | 0.0 | 1.0 | 0.00 | 0.00 | 0.00 | 32 | 1007.2 |
| 20260509221543 | 81 | 283 | 2.0 | 2.0 | 0.00 | 0.00 | 0.00 | 31 | 1007.3 |
| 20260509221039 | 82 | 225 | 2.0 | 2.0 | 0.00 | 0.00 | 0.00 | 30 | 1007.1 |
| 20260509220535 | 82 | 200 | 1.0 | 2.0 | 0.00 | 0.00 | 0.00 | 30 | 1007.0 |
| 20260509220031 | 82 | 216 | 1.0 | 2.0 | 0.00 | 0.00 | 0.00 | 30 | 1006.9 |
| 20260509215526 | 83 | 239 | 3.0 | 3.0 | 0.00 | 0.00 | 0.00 | 29 | 1006.9 |
| 20260509215024 | 83 | 277 | 3.0 | 5.0 | 0.00 | 0.00 | 0.00 | 28 | 1006.8 |
| 20260509214521 | 83 | 211 | 3.0 | 10.0 | 0.00 | 0.00 | 0.00 | 28 | 1006.6 |
| 20260509214018 | 83 | 209 | 2.0 | 6.0 | 0.00 | 0.00 | 0.00 | 29 | 1006.8 |
| 20260509213514 | 83 | 229 | 4.0 | 6.0 | 0.00 | 0.00 | 0.00 | 27 | 1006.8 |
| 20260509213011 | 84 | 221 | 5.0 | 7.0 | 0.00 | 0.00 | 0.00 | 26 | 1006.9 |
| 20260509212508 | 83 | 265 | 4.0 | 9.0 | 0.00 | 0.00 | 0.00 | 28 | 1006.6 |
| 20260509212005 | 83 | 244 | 2.0 | 5.0 | 0.00 | 0.00 | 0.00 | 29 | 1006.7 |
| 20260509211506 | 84 | 265 | 3.0 | 3.0 | 0.00 | 0.00 | 0.00 | 29 | 1006.9 |
| 20260509211003 | 84 | 215 | 3.0 | 6.0 | 0.00 | 0.00 | 0.00 | 28 | 1006.8 |
| 20260509210500 | 84 | 230 | 1.0 | 5.0 | 0.00 | 0.00 | 0.00 | 30 | 1006.9 |
| 20260509205955 | 84 | 234 | 3.0 | 7.0 | 0.00 | 0.00 | 0.00 | 30 | 1006.9 |
| 20260509205450 | 83 | 247 | 4.0 | 6.0 | 0.00 | 0.00 | 0.00 | 29 | 1007.2 |
| 20260509204946 | 83 | 260 | 3.0 | 6.0 | 0.00 | 0.00 | 0.00 | 30 | 1007.2 |
| 20260509204443 | 83 | 229 | 5.0 | 7.0 | 0.00 | 0.00 | 0.00 | 30 | 1007.2 |
| 20260509203939 | 84 | 244 | 5.0 | 6.0 | 0.00 | 0.00 | 0.00 | 32 | 1007.3 |
| 20260509203435 | 84 | 271 | 3.0 | 3.0 | 0.00 | 0.00 | 0.00 | 32 | 1007.3 |
| 20260509202933 | 83 | 5 | 0.0 | 2.0 | 0.00 | 0.00 | 0.00 | 32 | 1007.1 |
| 20260509202429 | 83 | 265 | 4.0 | 5.0 | 0.00 | 0.00 | 0.00 | 32 | 1007.2 |
| 20260509201924 | 83 | 294 | 2.0 | 3.0 | 0.00 | 0.00 | 0.00 | 33 | 1007.2 |
| 20260509201419 | 83 | 253 | 3.0 | 5.0 | 0.00 | 0.00 | 0.00 | 32 | 1007.4 |
| 20260509200916 | 83 | 284 | 2.0 | 5.0 | 0.00 | 0.00 | 0.00 | 32 | 1007.2 |
| 20260509200416 | 83 | 259 | 1.0 | 2.0 | 0.00 | 0.00 | 0.00 | 34 | 1007.3 |
| 20260509195913 | 82 | 223 | 2.0 | 2.0 | 0.00 | 0.00 | 0.00 | 33 | 1007.4 |
| 20260509195409 | 82 | 299 | 2.0 | 3.0 | 0.00 | 0.00 | 0.00 | 33 | 1007.5 |
| 20260509194908 | 82 | 262 | 3.0 | 5.0 | 0.00 | 0.00 | 0.00 | 33 | 1007.6 |
| 20260509194405 | 83 | 287 | 3.0 | 3.0 | 0.00 | 0.00 | 0.00 | 34 | 1007.5 |
| 20260509193901 | 82 | 0 | 1.0 | 3.0 | 0.00 | 0.00 | 0.00 | 36 | 1007.6 |
| 20260509193356 | 82 | 288 | 3.0 | 7.0 | 0.00 | 0.00 | 0.00 | 34 | 1007.8 |
| 20260509192852 | 82 | 274 | 1.0 | 2.0 | 0.00 | 0.00 | 0.00 | 34 | 1007.8 |
| 20260509192348 | 83 | 290 | 1.0 | 2.0 | 0.00 | 0.00 | 0.00 | 35 | 1007.9 |
| 20260509191844 | 82 | 252 | 0.0 | 1.0 | 0.00 | 0.00 | 0.00 | 35 | 1007.9 |
| 20260509191340 | 81 | 232 | 3.0 | 5.0 | 0.00 | 0.00 | 0.00 | 34 | 1008.0 |
| 20260509190836 | 82 | 282 | 3.0 | 5.0 | 0.00 | 0.00 | 0.00 | 35 | 1008.2 |
| 20260509190333 | 81 | 332 | 2.0 | 3.0 | 0.00 | 0.00 | 0.00 | 36 | 1008.2 |
| 20260509185830 | 81 | 247 | 2.0 | 5.0 | 0.00 | 0.00 | 0.00 | 35 | 1008.0 |
| 20260509185327 | 81 | 256 | 1.0 | 2.0 | 0.00 | 0.00 | 0.00 | 36 | 1008.1 |
| 20260509184824 | 81 | 246 | 2.0 | 2.0 | 0.00 | 0.00 | 0.00 | 38 | 1008.0 |
| 20260509184321 | 81 | 286 | 2.0 | 2.0 | 0.00 | 0.00 | 0.00 | 41 | 1008.0 |
| 20260509183817 | 81 | 229 | 0.0 | 0.0 | 0.00 | 0.00 | 0.00 | 40 | 1008.4 |
| 20260509183312 | 80 | 277 | 2.0 | 3.0 | 0.00 | 0.00 | 0.00 | 38 | 1008.3 |
| 20260509182809 | 80 | 128 | 0.0 | 3.0 | 0.00 | 0.00 | 0.00 | 40 | 1008.3 |
| 20260509182307 | 80 | 232 | 1.0 | 3.0 | 0.00 | 0.00 | 0.00 | 40 | 1008.2 |
| 20260509181803 | 79 | 255 | 1.0 | 2.0 | 0.00 | 0.00 | 0.00 | 40 | 1008.4 |
| 20260509181301 | 79 | 271 | 2.0 | 2.0 | 0.00 | 0.00 | 0.00 | 40 | 1008.4 |
| 20260509180758 | 79 | 214 | 3.0 | 3.0 | 0.00 | 0.00 | 0.00 | 39 | 1008.3 |
| 20260509180254 | 78 | 220 | 1.0 | 2.0 | 0.00 | 0.00 | 0.00 | 42 | 1008.3 |
| 20260509175750 | 78 | 219 | 1.0 | 3.0 | 0.00 | 0.00 | 0.00 | 42 | 1008.4 |
| 20260509175247 | 78 | 198 | 1.0 | 2.0 | 0.00 | 0.00 | 0.00 | 42 | 1008.4 |
| 20260509174743 | 78 | 143 | 1.0 | 3.0 | 0.00 | 0.00 | 0.00 | 40 | 1008.7 |
| 20260509174239 | 78 | 169 | 0.0 | 3.0 | 0.00 | 0.00 | 0.00 | 43 | 1008.5 |
| 20260509173735 | 78 | 303 | 1.0 | 3.0 | 0.00 | 0.00 | 0.00 | 42 | 1008.7 |
| 20260509173231 | 77 | 287 | 1.0 | 3.0 | 0.00 | 0.00 | 0.00 | 42 | 1008.8 |
| 20260509172727 | 77 | 133 | 2.0 | 3.0 | 0.00 | 0.00 | 0.00 | 42 | 1008.8 |
| 20260509172223 | 77 | 212 | 2.0 | 3.0 | 0.00 | 0.00 | 0.00 | 44 | 1009.0 |
| 20260509171719 | 76 | 160 | 1.0 | 1.0 | 0.00 | 0.00 | 0.00 | 45 | 1008.9 |
| 20260509171215 | 76 | 271 | 3.0 | 3.0 | 0.00 | 0.00 | 0.00 | 44 | 1009.0 |